Weather in Uromi

Nigeria     6°42′46″N   6°19′50″E
temp.,
°C
wind,
m/s
gust,
m/s
humid.,
%
clouds,
%
prec.,
mm/h
press.,
hPa
HPBL,
m
16 april, fri
fri1601:00+25sw41086100 0.0 1008449
04:00+24ssw2691100 0.0 1008311
07:00+24sw159254 0.0 1010233
10:00+31sw345944 0.0 10111050
13:00+37ssw223755 0.0 10082621
16:00+28w4570100 8.4 1004426
19:00+23ssw2588100 18.8 1007151
22:00+24wsw41190100 0.3 1010520
17 april, sat
sat1701:00+24wsw31093100 0.3 1009465
04:00+24sw31093100 0.0 1008504
07:00+24sw2893100 0.0 1010499
10:00+29sw4570100 0.1 10111033
13:00+28sw2467100 0.1 1010747
16:00+32wsw324998 0.0 10071900
19:00+26sw3782100 1.0 1009207
22:00+25wsw31087100 0.0 1010319
18 april, sun
sun1801:00+23sw2995100 0.0 1009322
04:00+24sw2893100 0.0 1009378
07:00+24wsw1495100 0.0 1011211
10:00+29wsw456698 0.0 1012954
13:00+34sw324727 0.0 10101700
16:00+33wsw234794 0.1 10071005
19:00+26sw4108130 3.1 1008348
22:00+26sw388597 0.0 1011436
19 april, mon
mon1901:00+25ssw2791100 0.0 1011330
04:00+24sw1497100 0.0 1009153
07:00+24wsw269663 0.0 1010260
10:00+30sw336578 0.0 10121036
13:00+35sw224456 0.0 10092135
16:00+32s365397 0.1 1007345
19:00+28sw4107174 0.2 1007507
22:00+26sw3984100 0.0 1010456
20 april, tue
tue2001:00+25sw4109097 0.0 1009460
04:00+24w3993100 0.0 1009592
07:00+24sw279494 0.1 1011348
10:00+30sw3466100 0.1 10121135
13:00+34ssw3345100 0.1 10092193
16:00+31wsw5758100 0.0 1007836
19:00+26ssw4107817 0.8 1007450
22:00+25wsw41086100 0.1 1010439